TimeEDT,TemperatureF,Dew PointF,Humidity,Sea Level PressureIn,VisibilityMPH,Wind Direction,Wind SpeedMPH,Gust SpeedMPH,PrecipitationIn,Events,Conditions,WindDirDegrees,DateUTC
12:00 AM,60.6,57.4,89,29.75,-9999.0,South,4.6,-,N/A,,Unknown,190,2012-10-06 04:00:00
1:00 AM,61.7,57.9,87,29.74,-9999.0,SSW,9.2,-,N/A,,Unknown,200,2012-10-06 05:00:00
2:00 AM,62,58,81,29.72,,SSW,10.4,,,,,210,2012-10-06 06:00:00
2:00 AM,61.5,57.6,87,29.72,-9999.0,SSW,10.4,-,N/A,,Unknown,210,2012-10-06 06:00:00
3:00 AM,61.9,57.4,85,29.71,-9999.0,SSW,12.7,-,N/A,,Unknown,210,2012-10-06 07:00:00
4:00 AM,60.8,55.0,81,29.71,-9999.0,SW,12.7,-,N/A,,Unknown,220,2012-10-06 08:00:00
5:00 AM,60.8,53.6,77,29.70,-9999.0,SSW,15.0,21.9,N/A,,Unknown,210,2012-10-06 09:00:00
6:00 AM,59.9,52.3,76,29.70,-9999.0,SSW,11.5,17.3,N/A,,Unknown,210,2012-10-06 10:00:00
7:00 AM,59.4,51.6,76,29.70,-9999.0,SSW,13.8,19.6,N/A,,Unknown,210,2012-10-06 11:00:00
8:00 AM,57,53,81,29.68,,SSW,6.9,,,,,200,2012-10-06 12:00:00
8:00 AM,57.0,52.9,86,29.68,-9999.0,SSW,6.9,-,N/A,,Unknown,200,2012-10-06 12:00:00
9:00 AM,55.4,53.4,93,29.68,-9999.0,SSW,8.1,-,0.08,,Unknown,210,2012-10-06 13:00:00
10:00 AM,53.8,53.2,98,29.67,-9999.0,WSW,8.1,-,0.15,,Unknown,250,2012-10-06 14:00:00
11:00 AM,52.2,51.6,98,29.64,-9999.0,WSW,4.6,-,0.24,,Unknown,240,2012-10-06 15:00:00
12:00 PM,53.1,52.3,97,29.63,-9999.0,SW,10.4,-,0.14,,Unknown,220,2012-10-06 16:00:00
2:00 PM,52,50,92,29.60,,SSW,13.8,,,,,210,2012-10-06 18:00:00
2:00 PM,52.3,50.4,93,29.60,-9999.0,SSW,13.8,20.7,0.02,,Unknown,210,2012-10-06 18:00:00
3:00 PM,52.0,49.8,92,29.62,-9999.0,SSW,15.0,-,N/A,,Unknown,210,2012-10-06 19:00:00
4:00 PM,50.7,48.9,94,29.62,-9999.0,SW,16.1,24.2,0.02,,Unknown,220,2012-10-06 20:00:00
5:00 PM,51.1,49.5,94,29.63,-9999.0,SW,15.0,-,N/A,,Unknown,220,2012-10-06 21:00:00
6:00 PM,50.9,48.6,92,29.65,-9999.0,SW,13.8,-,N/A,,Unknown,220,2012-10-06 22:00:00
7:00 PM,49.8,47.7,92,29.67,-9999.0,SSW,15.0,-,N/A,,Unknown,210,2012-10-06 23:00:00
8:00 PM,49,47,88,29.68,,SW,16.1,,,,,220,2012-10-07 00:00:00
8:00 PM,49.3,46.6,90,29.68,-9999.0,SW,16.1,-,N/A,,Unknown,220,2012-10-07 00:00:00
9:00 PM,49.3,46.4,90,29.69,-9999.0,SW,17.3,23.0,N/A,,Unknown,220,2012-10-07 01:00:00
10:00 PM,49.1,46.9,92,29.70,-9999.0,SW,13.8,-,N/A,,Unknown,220,2012-10-07 02:00:00
11:00 PM,48.9,45.5,88,29.69,-9999.0,SW,18.4,26.5,N/A,,Unknown,220,2012-10-07 03:00:00